Hourly Weather Roundup
Issued by NWS Central Illinois

Home | Current Version | Previous Version | Graphics & Text | Print | Product List | Glossary On
Versions: 1 2 3 4 5 6 7 8 9 10 11 12 13 14 15 16 17 18 19 20 21 22 23 24 25 26 27 28 29 30 31 32 33 34 35 36 37 38 39 40 41 42 43 44 45 46 47 48 49 50
000
NZUS43 KILX 310510
HWRILX

AREA WEATHER ROUNDUP
NATIONAL WEATHER SERVICE, LINCOLN IL
1200 AM CDT MON AUG 31 2015


CITY           SKY/WX    TMP DP  RH WIND       PRES   REMARKS
BLOOMINGTON    CLEAR     68  68 100 E5        30.05S FOG
CHAMPAIGN      CLOUDY    70  67  90 CALM      30.05S
DANVILLE       MOCLDY    67  67  97 CALM      30.02S FOG
DECATUR        MOCLDY    74  67  78 S5        30.04R
EFFINGHAM      CLOUDY    71  67  87 CALM      30.06R
FLORA          CLEAR     70  67  91 CALM      30.05R
GALESBURG      CLEAR     67  65  93 E5        30.03S
JACKSONVILLE   CLEAR     71  68  92 E5        30.02S
LACON          CLEAR     64  62  94 CALM      30.03R FOG
LAWRENCEVILLE  CLEAR     70  68  93 CALM      30.05S
LITCHFIELD     CLEAR     71  68  89 SE5       30.03S
$$


CITY           SKY/WX    TMP DP  RH WIND       PRES   REMARKS
LINCOLN        CLEAR     69  66  89 CALM      30.02S FOG
MACOMB         CLEAR     65  64  95 CALM      30.04S
MATTOON        PTCLDY    73  67  81 S6        30.04S HAZE
MT CARMEL AP   CLEAR     68  64  88 CALM      30.05S
OLNEY-NOBLE AP PTCLDY    70  68  94 CALM      30.05S
PARIS          MOCLDY    68  66  95 S3        30.05S
PEORIA         CLEAR     70  65  84 E5        30.03R
PONTIAC        CLEAR     65  65  99 CALM      30.04S FOG
RANTOUL        CLEAR     73  70  92 CALM      30.04S FOG
ROBINSON       CLEAR     67  65  94 CALM      30.06S
SPRINGFIELD    CLEAR     69  67  93 N3        30.02S
TAYLORVILLE    CLEAR     70  68  94 SE5       30.03R
$$

...REGIONAL REPORTS...


CITY           SKY/WX    TMP DP  RH WIND       PRES   REMARKS
CHICAGO O`HARE CLEAR     64  63  96 SE3       30.04S FOG
KANKAKEE         N/A     65  64  98 CALM      30.04S FOG
MOLINE         CLEAR     63  61  93 CALM      30.02S FOG
MOUNT STERLING CLEAR     69  68  96 CALM      30.01S
MOUNT VERNON   CLEAR     72  64  78 S5        30.05S
PITTSFIELD     CLEAR     70  69  94 CALM      30.02S FOG
QUINCY         CLEAR     73  69  87 E6        30.01S
ROCKFORD       CLEAR     63  60  90 SE3       30.05S
$$


CITY           SKY/WX    TMP DP  RH WIND       PRES   REMARKS
BURLINGTON     CLEAR     70  67  90 E3        30.01S
CEDAR RAPIDS   CLEAR     63  63 100 SE5       30.01S FOG
DES MOINES     PTCLDY    69  66  90 S6        29.99S
KIRKSVILLE     CLEAR     69  65  86 CALM      30.02R
OTTUMWA        CLEAR     67  66  97 E6        29.99S
ST LOUIS       MOCLDY    80  69  69 S9        30.02R HX  83
$$


CITY           SKY/WX    TMP DP  RH WIND       PRES   REMARKS
TERRE HAUTE    CLEAR     67  66  97 CALM      30.05S
EVANSVILLE     MOCLDY    71  66  84 S5        30.07R
INDIANAPOLIS   MOCLDY    72  66  81 S3        30.06R
LAFAYETTE      CLEAR     71  67  87 CALM      30.04S
MADISON        CLEAR     66  63  90 S6        30.02S
MILWAUKEE      CLEAR     63  61  93 SW5       30.03S FOG
$$




USA.gov is the U.S. government's official web portal to all federal, state and local government web resources and services.